TimeEST,TemperatureF,Dew PointF,Humidity,Sea Level PressureIn,VisibilityMPH,Wind Direction,Wind SpeedMPH,Gust SpeedMPH,PrecipitationIn,Events,Conditions,WindDirDegrees,DateUTC
12:53 AM,21.9,18.0,85,30.58,10.0,Calm,Calm,-,N/A,,Clear,0,2012-11-14 05:53:00
1:53 AM,23.0,19.0,85,30.58,10.0,Calm,Calm,-,N/A,,Clear,0,2012-11-14 06:53:00
2:53 AM,21.9,17.1,82,30.59,10.0,Calm,Calm,-,N/A,,Clear,0,2012-11-14 07:53:00
3:53 AM,21.9,17.1,82,30.59,10.0,Calm,Calm,-,N/A,,Clear,0,2012-11-14 08:53:00
4:53 AM,21.0,17.1,85,30.60,9.0,Calm,Calm,-,N/A,,Clear,0,2012-11-14 09:53:00
5:53 AM,21.0,17.1,85,30.61,9.0,Calm,Calm,-,N/A,,Clear,0,2012-11-14 10:53:00
6:53 AM,21.0,16.0,81,30.61,8.0,Calm,Calm,-,N/A,,Clear,0,2012-11-14 11:53:00
7:53 AM,21.0,17.1,85,30.61,7.0,Calm,Calm,-,N/A,,Clear,0,2012-11-14 12:53:00
8:53 AM,27.0,21.9,81,30.62,7.0,Calm,Calm,-,N/A,,Clear,0,2012-11-14 13:53:00
9:53 AM,33.1,25.0,72,30.62,10.0,South,5.8,-,N/A,,Clear,170,2012-11-14 14:53:00
10:53 AM,36.0,23.0,59,30.62,10.0,SSW,4.6,-,N/A,,Clear,200,2012-11-14 15:53:00
11:53 AM,37.0,21.9,54,30.59,10.0,ESE,4.6,-,N/A,,Clear,110,2012-11-14 16:53:00
12:53 PM,37.9,21.9,53,30.57,10.0,Variable,4.6,-,N/A,,Clear,0,2012-11-14 17:53:00
1:53 PM,39.9,23.0,51,30.55,10.0,SSW,3.5,-,N/A,,Clear,210,2012-11-14 18:53:00
2:53 PM,39.9,23.0,51,30.53,10.0,SSE,4.6,-,N/A,,Clear,160,2012-11-14 19:53:00
3:53 PM,39.9,23.0,51,30.52,10.0,South,3.5,-,N/A,,Clear,180,2012-11-14 20:53:00
4:53 PM,39.0,23.0,53,30.51,10.0,South,3.5,-,N/A,,Clear,180,2012-11-14 21:53:00
5:53 PM,37.9,23.0,55,30.51,10.0,Calm,Calm,-,N/A,,Clear,0,2012-11-14 22:53:00
6:53 PM,34.0,23.0,64,30.51,10.0,SSE,4.6,-,N/A,,Clear,150,2012-11-14 23:53:00
7:53 PM,35.1,25.0,67,30.50,10.0,South,3.5,-,N/A,,Clear,170,2012-11-15 00:53:00
8:53 PM,33.1,26.1,75,30.49,9.0,SSE,6.9,-,N/A,,Clear,150,2012-11-15 01:53:00
9:53 PM,33.1,26.1,75,30.49,9.0,South,3.5,-,N/A,,Clear,180,2012-11-15 02:53:00
10:53 PM,32.0,26.1,79,30.47,9.0,SSE,3.5,-,N/A,,Clear,150,2012-11-15 03:53:00
11:53 PM,33.1,25.0,72,30.46,9.0,Calm,Calm,-,N/A,,Clear,0,2012-11-15 04:53:00